"Pseudo-MPEC" for P110yz9

Created 2020 May 27 22:07:13 UT using Find_Orb

Click here for an explanation of pseudo-MPECs

 
 Astrometry: 
     P110yz9  C2020 05 196U.x]?vSwirkQWQ0xxAstrometrylredacted;'#6NS,qgxaB`_%F51
     P110yz9  C2020 05 19%5Y3click3H+XTcdnaVuVeldBS[/+hereBQk[1Jpj]]mC;G_$1.?F51
     P110yz9  C2020 05 19g]8xI^bE7CTforB?_gTp8Jaub.rWU26@@Uaexplanation#G_,GKF51

Station data:
(F51) Pan-STARRS 1, Haleakala  (N20.707235 W156.255910)  US/Hawaii.
   Observers N. Primak, A. Schultz, S. Watters, J. Thiel, T. Goggia. Measurer
   PS1 Science Consortium. 1.8-m Ritchey-Chrétien + CCD.

Orbital elements:  P110yz9
   Perihelion 2019 Dec 8.248917 +/- 184 TT =  5:58:26 (JD 2458825.748917)
Epoch 2020 May 19.0 TT = JDT 2458988.5   Earth MOID: 0.2520   AutoNEOCP
M 112.44765613 +/- 80               (J2000 ecliptic)
n   0.69091801 +/- 0.326            Peri.   15.06589 +/- 80
a   1.26721907 +/- 0.399            Node   110.01153 +/- 39
e   0.0257436 +/- 0.281             Incl.   11.95204 +/- 25
P   1.43/521.04d           H 23.1   G  0.15   U 12.0  SR
q 1.23459623 +/- 0.733    Q 1.29984192 +/- 35.2
From 3 observations 2020 May 19 (39.3 min); mean residual 0".04
Residuals in arcseconds: 
200519 F51  .04-  .02-    200519 F51  .07+  .04+    200519 F51  .04-  .02-    

Ephemerides (geocentric):
Date (UTC) HH   RA              Dec         delta   r     elong  mag " sig PA
---- -- -- --  -------------   -----------  ------ ------ -----  --- ---- ---
2020 05 27 22  16 44 14.951   +13 38 49.76  .31584 1.2835 144.4 22.4  33d 170
2020 05 27 23  16 44 10.527   +13 38 03.22  .31580 1.2835 144.4 22.4  33d 170
2020 05 28 00  16 44 06.101   +13 37 16.57  .31577 1.2835 144.4 22.4  33d 170
2020 05 28 01  16 44 01.674   +13 36 29.81  .31573 1.2835 144.5 22.4  33d 170
2020 05 28 02  16 43 57.246   +13 35 42.94  .31569 1.2835 144.5 22.4  33d 170
2020 05 28 03  16 43 52.815   +13 34 55.96  .31565 1.2835 144.5 22.4  33d 170
2020 05 28 04  16 43 48.384   +13 34 08.86  .31562 1.2836 144.5 22.4  33d 170
2020 05 28 05  16 43 43.951   +13 33 21.65  .31558 1.2836 144.5 22.4  33d 170
2020 05 28 06  16 43 39.516   +13 32 34.33  .31554 1.2836 144.5 22.4  33d 170
2020 05 28 07  16 43 35.080   +13 31 46.90  .31551 1.2836 144.5 22.4  33d 170
2020 05 28 08  16 43 30.642   +13 30 59.36  .31547 1.2836 144.6 22.4  33d 170
2020 05 28 09  16 43 26.203   +13 30 11.70  .31544 1.2836 144.6 22.4  33d 170
2020 05 28 10  16 43 21.763   +13 29 23.94  .31540 1.2836 144.6 22.4  33d 170
2020 05 28 11  16 43 17.321   +13 28 36.06  .31536 1.2837 144.6 22.4  33d 170
2020 05 28 12  16 43 12.878   +13 27 48.07  .31533 1.2837 144.6 22.4  33d 170
2020 05 28 13  16 43 08.433   +13 26 59.97  .31529 1.2837 144.6 22.4  33d 170
2020 05 28 14  16 43 03.987   +13 26 11.76  .31526 1.2837 144.7 22.4  33d 170
2020 05 28 15  16 42 59.540   +13 25 23.43  .31522 1.2837 144.7 22.4  33d 170
2020 05 28 16  16 42 55.092   +13 24 35.00  .31519 1.2837 144.7 22.4  33d 170
2020 05 28 17  16 42 50.642   +13 23 46.45  .31515 1.2837 144.7 22.4  33d 170
2020 05 28 18  16 42 46.191   +13 22 57.79  .31512 1.2838 144.7 22.4  33d 170
2020 05 28 19  16 42 41.739   +13 22 09.02  .31509 1.2838 144.7 22.4  33d 170
2020 05 28 20  16 42 37.285   +13 21 20.14  .31505 1.2838 144.7 22.4  33d 170
2020 05 28 21  16 42 32.830   +13 20 31.15  .31502 1.2838 144.8 22.4  33d 170
2020 05 28 22  16 42 28.374   +13 19 42.04  .31498 1.2838 144.8 22.4  33d 170
2020 05 28 23  16 42 23.917   +13 18 52.83  .31495 1.2838 144.8 22.4  33d 170
2020 05 29 00  16 42 19.459   +13 18 03.50  .31492 1.2838 144.8 22.4  33d 170
2020 05 29 01  16 42 14.999   +13 17 14.06  .31488 1.2839 144.8 22.4  33d 170
2020 05 29 02  16 42 10.538   +13 16 24.51  .31485 1.2839 144.8 22.4  33d 170
2020 05 29 03  16 42 06.077   +13 15 34.86  .31482 1.2839 144.8 22.4  33d 170
2020 05 29 04  16 42 01.614   +13 14 45.09  .31479 1.2839 144.9 22.4  33d 170
2020 05 29 05  16 41 57.150   +13 13 55.20  .31475 1.2839 144.9 22.4  33d 170
2020 05 29 06  16 41 52.685   +13 13 05.21  .31472 1.2839 144.9 22.4  33d 170
2020 05 29 07  16 41 48.219   +13 12 15.11  .31469 1.2839 144.9 22.4  33d 170
2020 05 29 08  16 41 43.752   +13 11 24.90  .31466 1.2839 144.9 22.4  33d 170
2020 05 29 09  16 41 39.284   +13 10 34.57  .31462 1.2840 144.9 22.4  33d 170
2020 05 29 10  16 41 34.815   +13 09 44.14  .31459 1.2840 144.9 22.4  33d 170
2020 05 29 11  16 41 30.345   +13 08 53.59  .31456 1.2840 145.0 22.4  33d 170
2020 05 29 12  16 41 25.874   +13 08 02.94  .31453 1.2840 145.0 22.4  33d 170
2020 05 29 13  16 41 21.402   +13 07 12.17  .31450 1.2840 145.0 22.4  33d 170
2020 05 29 14  16 41 16.929   +13 06 21.30  .31447 1.2840 145.0 22.4  33d 170
2020 05 29 15  16 41 12.455   +13 05 30.31  .31444 1.2840 145.0 22.4  33d 170
2020 05 29 16  16 41 07.980   +13 04 39.21  .31441 1.2841 145.0 22.4  33d 170
2020 05 29 17  16 41 03.505   +13 03 48.00  .31438 1.2841 145.0 22.4  33d 170
2020 05 29 18  16 40 59.028   +13 02 56.69  .31435 1.2841 145.1 22.4  33d 170
2020 05 29 19  16 40 54.551   +13 02 05.26  .31432 1.2841 145.1 22.4  33d 170
2020 05 29 20  16 40 50.073   +13 01 13.72  .31429 1.2841 145.1 22.4  33d 170
2020 05 29 21  16 40 45.594   +13 00 22.07  .31426 1.2841 145.1 22.4  33d 170